FLE115 KJFK-CYYZ

Flight info

Callsign FLE115
Flight time 1h 4m
Altitude 36000
Route COATE DCT CFB DCT BUF DCT LOKPU LINNG3
Aircraft B738/M-SDE2E3FGHIRWXY/LB1

Departure

Time 2026-05-09 03:41
Airport John F. Kennedy International Airport (KJFK)

Arrival

Time 2026-05-09 04:46
Airport Toronto Pearson International Airport (CYYZ)
Time Latitude Longitude Altitude Speed Heading
2026-05-09 03:08 40.64362 -73.79197 23 ft 0 kts 57°
2026-05-09 03:30 40.64354 -73.79212 28 ft 4 kts 60°
2026-05-09 03:30 40.64343 -73.79244 26 ft 4 kts 71°
2026-05-09 03:30 40.64337 -73.79271 23 ft 4 kts 95°
2026-05-09 03:30 40.64347 -73.79301 27 ft 4 kts 130°
2026-05-09 03:31 40.64352 -73.79308 26 ft 4 kts 133°
2026-05-09 03:31 40.64329 -73.79304 26 ft 4 kts 188°
2026-05-09 03:31 40.64305 -73.79319 23 ft 4 kts 212°
2026-05-09 03:31 40.64284 -73.79342 26 ft 3 kts 224°
2026-05-09 03:32 40.64266 -73.79366 25 ft 4 kts 225°
2026-05-09 03:32 40.64247 -73.79391 26 ft 4 kts 225°
2026-05-09 03:32 40.64238 -73.79403 23 ft 0 kts 225°
2026-05-09 03:35 40.64225 -73.79421 23 ft 7 kts 234°
2026-05-09 03:35 40.64194 -73.79487 26 ft 9 kts 216°
2026-05-09 03:35 40.64116 -73.79504 22 ft 14 kts 175°
2026-05-09 03:36 40.64040 -73.79429 24 ft 14 kts 122°
2026-05-09 03:36 40.63991 -73.79324 20 ft 13 kts 122°
2026-05-09 03:36 40.63944 -73.79221 19 ft 14 kts 118°
2026-05-09 03:36 40.63901 -73.79109 21 ft 13 kts 117°
2026-05-09 03:37 40.63855 -73.79005 24 ft 13 kts 132°
2026-05-09 03:37 40.63801 -73.78901 26 ft 15 kts 121°
2026-05-09 03:37 40.63747 -73.78785 28 ft 15 kts 121°
2026-05-09 03:37 40.63688 -73.78655 28 ft 22 kts 121°
2026-05-09 03:38 40.63607 -73.78475 28 ft 23 kts 121°
2026-05-09 03:38 40.63571 -73.78397 27 ft 5 kts 121°
2026-05-09 03:38 40.63520 -73.78286 24 ft 23 kts 121°
2026-05-09 03:38 40.63429 -73.78085 25 ft 25 kts 121°
2026-05-09 03:39 40.63348 -73.77887 26 ft 24 kts 118°
2026-05-09 03:39 40.63266 -73.77706 26 ft 23 kts 121°
2026-05-09 03:39 40.63184 -73.77532 29 ft 22 kts 121°
2026-05-09 03:39 40.63106 -73.77362 27 ft 21 kts 118°
2026-05-09 03:40 40.63043 -73.77293 27 ft 11 kts 183°
2026-05-09 03:40 40.62966 -73.77346 27 ft 14 kts 212°
2026-05-09 03:40 40.62914 -73.77433 27 ft 12 kts 295°
2026-05-09 03:40 40.63012 -73.77645 29 ft 59 kts 301°
2026-05-09 03:41 40.63357 -73.78409 21 ft 133 kts 301°
2026-05-09 03:41 40.63715 -73.79191 109 ft 163 kts 301°
2026-05-09 03:41 40.64502 -73.80889 1228 ft 162 kts 298°
2026-05-09 03:41 40.64906 -73.81756 1622 ft 177 kts 298°
2026-05-09 03:42 40.65673 -73.83872 2254 ft 199 kts 272°
2026-05-09 03:42 40.65511 -73.85044 2669 ft 200 kts 243°
2026-05-09 03:42 40.64458 -73.86247 3324 ft 209 kts 206°
2026-05-09 03:42 40.63111 -73.86963 4069 ft 209 kts 210°
2026-05-09 03:43 40.61781 -73.87743 4782 ft 209 kts 212°
2026-05-09 03:43 40.60442 -73.88508 5495 ft 214 kts 202°
2026-05-09 03:43 40.58854 -73.88549 5867 ft 248 kts 175°
2026-05-09 03:43 40.57092 -73.88327 6166 ft 258 kts 200°
2026-05-09 03:44 40.55615 -73.89470 6858 ft 245 kts 237°
2026-05-09 03:44 40.55033 -73.91485 7680 ft 238 kts 271°
2026-05-09 03:44 40.55421 -73.93595 8564 ft 241 kts 292°
2026-05-09 03:44 40.56418 -73.95400 9423 ft 248 kts 308°
2026-05-09 03:45 40.57649 -73.97018 10232 ft 253 kts 310°
2026-05-09 03:45 40.58964 -73.98683 10551 ft 275 kts 311°
2026-05-09 03:45 40.60401 -74.00497 10737 ft 298 kts 311°
2026-05-09 03:45 40.61953 -74.02462 10909 ft 321 kts 311°
2026-05-09 03:46 40.63610 -74.04569 11097 ft 341 kts 311°
2026-05-09 03:46 40.65340 -74.06774 11561 ft 350 kts 311°
2026-05-09 03:46 40.67096 -74.09013 12254 ft 352 kts 311°
2026-05-09 03:46 40.68838 -74.11241 12969 ft 354 kts 311°
2026-05-09 03:47 40.70609 -74.13513 13661 ft 357 kts 311°
2026-05-09 03:47 40.72394 -74.15810 14281 ft 360 kts 311°
2026-05-09 03:47 40.74194 -74.18131 14902 ft 362 kts 311°
2026-05-09 03:47 40.75996 -74.20456 15489 ft 363 kts 311°
2026-05-09 03:48 40.77806 -74.22797 15971 ft 366 kts 311°
2026-05-09 03:48 40.79635 -74.25165 16446 ft 369 kts 311°
2026-05-09 03:48 40.81469 -74.27543 16948 ft 371 kts 311°
2026-05-09 03:48 40.83316 -74.29944 17458 ft 373 kts 311°
2026-05-09 03:49 40.85174 -74.32353 17937 ft 376 kts 311°
2026-05-09 03:49 40.87048 -74.34783 18383 ft 378 kts 311°
2026-05-09 03:49 40.88928 -74.37225 18850 ft 378 kts 310°
2026-05-09 03:49 40.90807 -74.39668 19330 ft 378 kts 310°
2026-05-09 03:50 40.92685 -74.42116 19750 ft 380 kts 310°
2026-05-09 03:50 40.94579 -74.44586 20123 ft 383 kts 310°
2026-05-09 03:50 40.96478 -74.47074 20492 ft 385 kts 310°
2026-05-09 03:50 40.98360 -74.49536 20918 ft 385 kts 310°
2026-05-09 03:51 41.00274 -74.52029 21297 ft 386 kts 310°
2026-05-09 03:51 41.02192 -74.54531 21633 ft 389 kts 310°
2026-05-09 03:51 41.04117 -74.57062 22072 ft 390 kts 309°
2026-05-09 03:51 41.06049 -74.59591 22520 ft 392 kts 309°
2026-05-09 03:52 41.07993 -74.62136 22953 ft 393 kts 309°
2026-05-09 03:52 41.09946 -74.64696 23390 ft 395 kts 309°
2026-05-09 03:52 41.11905 -74.67268 23778 ft 397 kts 309°
2026-05-09 03:52 41.13869 -74.69851 24150 ft 397 kts 309°
2026-05-09 03:53 41.15809 -74.72470 24476 ft 398 kts 308°
2026-05-09 03:53 41.17708 -74.75088 24826 ft 398 kts 308°
2026-05-09 03:53 41.19626 -74.77751 25207 ft 399 kts 308°
2026-05-09 03:53 41.21544 -74.80418 25557 ft 399 kts 308°
2026-05-09 03:54 41.23461 -74.83085 25886 ft 400 kts 308°
2026-05-09 03:54 41.25391 -74.85767 26211 ft 401 kts 308°
2026-05-09 03:54 41.27321 -74.88447 26502 ft 402 kts 308°
2026-05-09 03:54 41.29254 -74.91131 26801 ft 402 kts 308°
2026-05-09 03:55 41.31184 -74.93810 27181 ft 399 kts 308°
2026-05-09 03:55 41.33097 -74.96465 27681 ft 395 kts 308°
2026-05-09 03:55 41.34989 -74.99091 28215 ft 391 kts 307°
2026-05-09 03:55 41.36863 -75.01696 28664 ft 388 kts 307°
2026-05-09 03:56 41.38700 -75.04256 29066 ft 386 kts 307°
2026-05-09 03:56 41.40550 -75.06835 29496 ft 384 kts 307°
2026-05-09 03:56 41.42390 -75.09403 29956 ft 381 kts 307°
2026-05-09 03:56 41.44209 -75.11942 30433 ft 376 kts 307°
2026-05-09 03:57 41.46011 -75.14457 30836 ft 374 kts 307°
2026-05-09 03:57 41.47813 -75.16978 31015 ft 377 kts 307°
2026-05-09 03:57 41.49625 -75.19520 31235 ft 378 kts 307°
2026-05-09 03:57 41.51433 -75.22059 31509 ft 377 kts 307°
2026-05-09 03:58 41.53239 -75.24595 31775 ft 377 kts 307°
2026-05-09 03:58 41.55042 -75.27127 32016 ft 377 kts 307°
2026-05-09 03:58 41.56851 -75.29671 32255 ft 377 kts 307°
2026-05-09 03:58 41.58658 -75.32211 32521 ft 377 kts 307°
2026-05-09 03:59 41.60464 -75.34756 32751 ft 376 kts 307°
2026-05-09 03:59 41.62242 -75.37265 33006 ft 376 kts 307°
2026-05-09 03:59 41.64044 -75.39805 33188 ft 377 kts 307°
2026-05-09 03:59 41.65851 -75.42357 33389 ft 377 kts 307°
2026-05-09 04:00 41.67642 -75.44883 33832 ft 371 kts 307°
2026-05-09 04:00 41.69418 -75.47387 34141 ft 370 kts 306°
2026-05-09 04:00 41.72986 -75.52441 34353 ft 375 kts 306°
2026-05-09 04:01 41.74783 -75.54989 34526 ft 376 kts 306°
2026-05-09 04:01 41.76578 -75.57537 34663 ft 377 kts 306°
2026-05-09 04:01 41.78382 -75.60100 34801 ft 379 kts 306°
2026-05-09 04:01 41.80193 -75.62673 34955 ft 379 kts 306°
2026-05-09 04:02 41.82010 -75.65257 35095 ft 380 kts 306°
2026-05-09 04:02 41.83800 -75.67805 35196 ft 381 kts 307°
2026-05-09 04:02 41.85616 -75.70394 35337 ft 382 kts 306°
2026-05-09 04:02 41.87437 -75.72991 35493 ft 382 kts 307°
2026-05-09 04:03 41.89250 -75.75588 35650 ft 381 kts 306°
2026-05-09 04:03 41.91045 -75.78205 35793 ft 382 kts 306°
2026-05-09 04:03 41.92870 -75.80809 35913 ft 384 kts 306°
2026-05-09 04:03 41.94710 -75.83422 35962 ft 385 kts 306°
2026-05-09 04:04 41.98386 -75.88661 35967 ft 385 kts 306°
2026-05-09 04:04 42.02041 -75.93898 35960 ft 384 kts 306°
2026-05-09 04:05 42.05687 -75.99144 35964 ft 383 kts 306°
2026-05-09 04:05 42.09329 -76.04393 35964 ft 383 kts 306°
2026-05-09 04:06 42.12962 -76.09637 35959 ft 383 kts 306°
2026-05-09 04:06 42.16127 -76.15275 35984 ft 374 kts 295°
2026-05-09 04:07 42.18302 -76.21550 35972 ft 371 kts 290°
2026-05-09 04:07 42.20341 -76.27972 35967 ft 373 kts 290°
2026-05-09 04:08 42.22393 -76.34424 35961 ft 375 kts 290°
2026-05-09 04:08 42.24459 -76.40906 35964 ft 376 kts 290°
2026-05-09 04:09 42.26528 -76.47401 35957 ft 377 kts 290°
2026-05-09 04:09 42.28598 -76.53911 35956 ft 377 kts 290°
2026-05-09 04:10 42.30665 -76.60423 35951 ft 377 kts 290°
2026-05-09 04:10 42.32728 -76.66944 35953 ft 377 kts 289°
2026-05-09 04:11 42.34774 -76.73426 35956 ft 377 kts 289°
2026-05-09 04:11 42.36827 -76.79947 35952 ft 377 kts 289°
2026-05-09 04:12 42.38877 -76.86474 35955 ft 377 kts 289°
2026-05-09 04:12 42.40924 -76.93004 35943 ft 376 kts 289°
2026-05-09 04:13 42.42958 -76.99513 35946 ft 375 kts 289°
2026-05-09 04:13 42.44977 -77.05989 35950 ft 375 kts 289°
2026-05-09 04:14 42.47003 -77.12504 35937 ft 375 kts 289°
2026-05-09 04:14 42.49025 -77.19019 35939 ft 375 kts 289°
2026-05-09 04:15 42.51044 -77.25542 35949 ft 375 kts 289°
2026-05-09 04:15 42.53061 -77.32075 35953 ft 376 kts 289°
2026-05-09 04:16 42.55080 -77.38634 35969 ft 377 kts 289°
2026-05-09 04:16 42.57084 -77.45155 35958 ft 377 kts 289°
2026-05-09 04:17 42.59100 -77.51735 35948 ft 378 kts 289°
2026-05-09 04:17 42.61115 -77.58327 35947 ft 378 kts 289°
2026-05-09 04:18 42.63124 -77.64916 35954 ft 377 kts 289°
2026-05-09 04:18 42.65121 -77.71483 35945 ft 378 kts 289°
2026-05-09 04:19 42.67126 -77.78093 35943 ft 378 kts 289°
2026-05-09 04:19 42.69124 -77.84695 35956 ft 377 kts 289°
2026-05-09 04:20 42.71115 -77.91289 35952 ft 377 kts 288°
2026-05-09 04:20 42.73101 -77.97889 35824 ft 377 kts 288°
2026-05-09 04:21 42.74094 -78.01192 35401 ft 373 kts 288°
2026-05-09 04:21 42.75072 -78.04445 34747 ft 371 kts 288°
2026-05-09 04:21 42.76984 -78.10828 33418 ft 367 kts 288°
2026-05-09 04:22 42.77942 -78.14034 32724 ft 364 kts 288°
2026-05-09 04:22 42.78895 -78.17225 31984 ft 363 kts 288°
2026-05-09 04:22 42.79843 -78.20405 31297 ft 362 kts 288°
2026-05-09 04:22 42.80787 -78.23575 30612 ft 361 kts 288°
2026-05-09 04:23 42.81725 -78.26731 30093 ft 357 kts 289°
2026-05-09 04:23 42.82653 -78.29851 29488 ft 353 kts 289°
2026-05-09 04:23 42.83566 -78.32924 29023 ft 347 kts 289°
2026-05-09 04:23 42.84463 -78.35947 28470 ft 343 kts 289°
2026-05-09 04:24 42.85350 -78.38946 27981 ft 339 kts 289°
2026-05-09 04:24 42.86224 -78.41899 27495 ft 334 kts 289°
2026-05-09 04:24 42.87090 -78.44834 27022 ft 334 kts 289°
2026-05-09 04:24 42.87971 -78.47831 26529 ft 349 kts 289°
2026-05-09 04:25 42.88882 -78.50933 26020 ft 363 kts 289°
2026-05-09 04:25 42.89819 -78.54110 25473 ft 359 kts 289°
2026-05-09 04:25 42.90746 -78.57254 24953 ft 355 kts 289°
2026-05-09 04:25 42.91663 -78.60373 24447 ft 352 kts 289°
2026-05-09 04:26 42.92576 -78.63463 23945 ft 350 kts 290°
2026-05-09 04:26 42.93679 -78.66420 23447 ft 351 kts 297°
2026-05-09 04:26 42.94966 -78.69238 22889 ft 348 kts 298°
2026-05-09 04:26 42.96251 -78.72025 22380 ft 345 kts 298°
2026-05-09 04:27 42.97522 -78.74785 21884 ft 342 kts 298°
2026-05-09 04:27 42.98779 -78.77525 21396 ft 340 kts 297°
2026-05-09 04:27 43.00029 -78.80261 20903 ft 338 kts 297°
2026-05-09 04:27 43.01272 -78.82992 20428 ft 340 kts 297°
2026-05-09 04:28 43.02537 -78.85783 19953 ft 349 kts 297°
2026-05-09 04:28 43.03386 -78.87660 19622 ft 352 kts 297°
2026-05-09 04:28 43.04674 -78.90503 19118 ft 349 kts 297°
2026-05-09 04:28 43.06361 -78.94225 18471 ft 345 kts 297°
2026-05-09 04:29 43.07619 -78.97006 17957 ft 342 kts 297°
2026-05-09 04:29 43.08864 -78.99762 17428 ft 339 kts 297°
2026-05-09 04:29 43.09680 -79.01570 17177 ft 335 kts 297°
2026-05-09 04:29 43.10895 -79.04265 16747 ft 331 kts 297°
2026-05-09 04:30 43.12097 -79.06935 16260 ft 328 kts 297°
2026-05-09 04:30 43.13291 -79.09590 15806 ft 326 kts 297°
2026-05-09 04:30 43.14475 -79.12227 15350 ft 324 kts 297°
2026-05-09 04:30 43.15650 -79.14844 14891 ft 321 kts 298°
2026-05-09 04:31 43.16821 -79.17457 14441 ft 320 kts 298°
2026-05-09 04:31 43.17984 -79.20050 14002 ft 318 kts 298°
2026-05-09 04:31 43.19124 -79.22596 13554 ft 316 kts 298°
2026-05-09 04:31 43.20270 -79.25156 13079 ft 315 kts 298°
2026-05-09 04:32 43.21424 -79.27698 12619 ft 314 kts 301°
2026-05-09 04:32 43.22875 -79.29940 12172 ft 316 kts 313°
2026-05-09 04:32 43.24617 -79.31799 11763 ft 318 kts 323°
2026-05-09 04:32 43.26569 -79.33160 11642 ft 312 kts 330°
2026-05-09 04:33 43.28525 -79.34390 11493 ft 307 kts 330°
2026-05-09 04:33 43.30453 -79.35608 11366 ft 305 kts 329°
2026-05-09 04:33 43.32370 -79.36824 11234 ft 300 kts 329°
2026-05-09 04:33 43.34234 -79.38012 11120 ft 291 kts 330°
2026-05-09 04:34 43.36040 -79.39165 10979 ft 282 kts 329°
2026-05-09 04:34 43.37806 -79.40300 10696 ft 279 kts 330°
2026-05-09 04:34 43.39555 -79.41425 10413 ft 276 kts 330°
2026-05-09 04:34 43.41289 -79.42541 10138 ft 273 kts 330°
2026-05-09 04:35 43.43006 -79.43646 9868 ft 271 kts 330°
2026-05-09 04:35 43.44689 -79.44730 9572 ft 269 kts 330°
2026-05-09 04:35 43.46377 -79.45818 9277 ft 267 kts 330°
2026-05-09 04:35 43.48050 -79.46897 8993 ft 264 kts 330°
2026-05-09 04:36 43.49712 -79.47968 8711 ft 262 kts 330°
2026-05-09 04:36 43.51358 -79.49031 8437 ft 260 kts 330°
2026-05-09 04:36 43.52976 -79.50074 8166 ft 253 kts 330°
2026-05-09 04:36 43.54559 -79.51095 7909 ft 249 kts 330°
2026-05-09 04:37 43.56124 -79.52101 7666 ft 247 kts 331°
2026-05-09 04:37 43.57681 -79.53084 7409 ft 246 kts 335°
2026-05-09 04:37 43.59368 -79.53374 7135 ft 254 kts
2026-05-09 04:37 43.60989 -79.52405 6877 ft 256 kts 34°
2026-05-09 04:38 43.62264 -79.50718 6617 ft 252 kts 44°
2026-05-09 04:38 43.63449 -79.48957 6363 ft 250 kts 44°
2026-05-09 04:38 43.64629 -79.47195 6094 ft 250 kts 44°
2026-05-09 04:38 43.65817 -79.45443 5827 ft 249 kts 44°
2026-05-09 04:39 43.67005 -79.43695 5578 ft 250 kts 44°
2026-05-09 04:39 43.68198 -79.41941 5294 ft 251 kts 44°
2026-05-09 04:39 43.69395 -79.40178 5022 ft 252 kts 44°
2026-05-09 04:39 43.70606 -79.38438 4773 ft 248 kts 41°
2026-05-09 04:40 43.72019 -79.37249 4510 ft 232 kts
2026-05-09 04:40 43.73564 -79.37383 4265 ft 218 kts 341°
2026-05-09 04:40 43.74915 -79.38129 4014 ft 207 kts 320°
2026-05-09 04:40 43.75939 -79.39436 3823 ft 197 kts 312°
2026-05-09 04:41 43.76926 -79.40721 3664 ft 192 kts 313°
2026-05-09 04:41 43.77834 -79.42038 3469 ft 186 kts 296°
2026-05-09 04:41 43.78025 -79.43722 3151 ft 178 kts 251°
2026-05-09 04:41 43.77453 -79.45138 3112 ft 170 kts 228°
2026-05-09 04:42 43.76640 -79.46378 2889 ft 174 kts 225°
2026-05-09 04:42 43.75835 -79.47585 2717 ft 165 kts 227°
2026-05-09 04:42 43.75082 -79.48701 2556 ft 154 kts 225°
2026-05-09 04:42 43.74401 -79.49698 2428 ft 156 kts 225°
2026-05-09 04:43 43.73651 -79.50798 2312 ft 157 kts 225°
2026-05-09 04:43 43.72903 -79.51902 2121 ft 153 kts 225°
2026-05-09 04:43 43.72185 -79.52955 1909 ft 148 kts 224°
2026-05-09 04:43 43.71494 -79.53960 1712 ft 143 kts 224°
2026-05-09 04:44 43.70807 -79.54959 1528 ft 144 kts 224°
2026-05-09 04:44 43.70101 -79.55983 1325 ft 150 kts 225°
2026-05-09 04:44 43.69381 -79.57029 1146 ft 151 kts 224°
2026-05-09 04:44 43.68648 -79.58083 936 ft 152 kts 226°
2026-05-09 04:45 43.67920 -79.59161 720 ft 153 kts 224°
2026-05-09 04:45 43.67198 -79.60205 565 ft 143 kts 225°
2026-05-09 04:45 43.66636 -79.61011 562 ft 85 kts 225°
2026-05-09 04:45 43.66339 -79.61442 561 ft 53 kts 226°
2026-05-09 04:46 43.66104 -79.61788 564 ft 46 kts 227°
2026-05-09 04:46 43.66002 -79.62032 563 ft 26 kts 258°
2026-05-09 04:46 43.66027 -79.62239 559 ft 21 kts 315°
2026-05-09 04:46 43.66128 -79.62378 560 ft 21 kts 316°
2026-05-09 04:47 43.66251 -79.62492 559 ft 19 kts 354°
2026-05-09 04:47 43.66350 -79.62409 563 ft 16 kts 43°
2026-05-09 04:47 43.66432 -79.62306 562 ft 16 kts 40°
2026-05-09 04:47 43.66522 -79.62198 566 ft 20 kts 42°
2026-05-09 04:48 43.66625 -79.62065 566 ft 20 kts 44°
2026-05-09 04:48 43.66727 -79.61931 570 ft 24 kts 42°
2026-05-09 04:48 43.66854 -79.61773 565 ft 24 kts 39°
2026-05-09 04:48 43.66955 -79.61660 568 ft 12 kts 16°
2026-05-09 04:49 43.67030 -79.61706 566 ft 15 kts 321°
2026-05-09 04:49 43.67134 -79.61836 566 ft 23 kts 315°
2026-05-09 04:49 43.67253 -79.61995 566 ft 24 kts 316°
2026-05-09 04:49 43.67371 -79.62148 568 ft 23 kts 318°
2026-05-09 04:50 43.67492 -79.62303 568 ft 23 kts 316°
2026-05-09 04:50 43.67610 -79.62456 566 ft 24 kts 317°
2026-05-09 04:50 43.67728 -79.62610 573 ft 23 kts 317°
2026-05-09 04:50 43.67845 -79.62762 566 ft 23 kts 316°
2026-05-09 04:51 43.67948 -79.62855 569 ft 13 kts 11°
2026-05-09 04:51 43.68027 -79.62767 571 ft 17 kts 44°
2026-05-09 04:51 43.68132 -79.62613 571 ft 23 kts 44°
2026-05-09 04:51 43.68250 -79.62467 568 ft 20 kts 45°
2026-05-09 04:52 43.68350 -79.62416 569 ft 16 kts 321°
2026-05-09 04:52 43.68388 -79.62445 566 ft 1 kts
2026-05-09 04:52 43.68413 -79.62433 563 ft 5 kts 20°
2026-05-09 04:52 43.68437 -79.62421 565 ft 2 kts 20°
2026-05-09 04:53 43.68441 -79.62419 564 ft 0 kts 20°